This demonstration page uses our WeatherBlox Daily Observations layout. Learn more.

Left ArrowRight Arrow

Hourly Observations for May 27, 2022

Temp ( °F °C ) Dew Point ( °F °C ) Humidity (%) Winds ( mph kmh ) Pressure ( in mb ) Visibility ( mi km ) Precip ( " mm )
12:53 am 00:53 Clear 68 20 54 12.2 61 61 Calm 29.96 1015 10 16 0.00 0.00
1:53 am 01:53 Clear 65 18.3 54 12.2 68 68 Calm 29.97 1015 10 16 0.00 0.00
2:53 am 02:53 Clear 63 17.2 54 12.2 73 73 Calm 29.97 1015 10 16 0.00 0.00
3:53 am 03:53 Clear 62 16.7 55 12.8 78 78 Calm 29.97 1015 10 16 0.00 0.00
4:53 am 04:53 Clear 62 16.7 55 12.8 78 78 Calm 29.98 1015 10 16 0.00 0.00
5:53 am 05:53 Clear 60 15.6 56 13.3 86 86 Calm 29.99 1016 10 16 0.00 0.00
6:53 am 06:53 Mostly Sunny 61 16.1 57 13.9 87 87 Calm 30.00 1016 10 16 0.00 0.00
7:53 am 07:53 Sunny 67 19.4 59 15 76 76 Calm 30.02 1017 10 16 0.00 0.00
8:53 am 08:53 Sunny 72 22.2 58 14.4 61 61 Calm 30.03 1017 10 16 0.00 0.00
9:53 am 09:53 Sunny 78 25.6 56 13.3 47 47 Calm 30.04 1017 10 16 0.00 0.00
10:53 am 10:53 Sunny 83 28.3 50 10 32 32 N 6 9 30.03 1017 10 16 0.00 0.00
11:53 am 11:53 Sunny 84 28.9 48 8.9 29 29 Calm 30.03 1017 10 16 0.00 0.00
12:53 pm 12:53 Mostly Sunny 86 30 49 9.4 28 28 Calm 30.02 1017 10 16 0.00 0.00
1:53 pm 13:53 Mostly Sunny 88 31.1 49 9.4 26 26 ENE 5 7 29.99 1016 10 16 0.00 0.00
2:53 pm 14:53 Mostly Sunny 90 32.2 50 10 25 25 VRB 3 6 29.97 1015 10 16 0.00 0.00
3:53 pm 15:53 Mostly Sunny 90 32.2 52 11.1 27 27 E 3 6 29.95 1014 10 16 0.00 0.00
4:53 pm 16:53 Mostly Sunny 89 31.7 55 12.8 31 31 VRB 3 6 29.93 1013 10 16 0.00 0.00
5:53 pm 17:53 Mostly Sunny 89 31.7 53 11.7 29 29 ESE 8 13 29.91 1013 10 16 0.00 0.00
6:53 pm 18:53 Sunny 88 31.1 52 11.1 29 29 SE 8 13 29.90 1013 10 16 0.00 0.00
7:53 pm 19:53 Sunny 86 30 51 10.6 30 30 SSE 9 15 29.90 1013 10 16 0.00 0.00
8:53 pm 20:53 Clear 84 28.9 54 12.2 36 36 SE 8 13 29.90 1012 10 16 0.00 0.00
9:53 pm 21:53 Clear 81 27.2 56 13.3 42 42 SE 9 15 29.90 1012 10 16 0.00 0.00
10:53 pm 22:53 Clear 78 25.6 56 13.3 47 47 ESE 9 15 29.91 1013 10 16 0.00 0.00
11:53 pm 23:53 Clear 76 24.4 56 13.3 50 50 ESE 8 13 29.91 1013 10 16 0.00 0.00

Powered by AerisWeather